GEFSSE_con_maxscp_210.txt.gz
SCP
1 1 2 3 3 3 4 3 3 3 3 3 3 4 4 4 3 2 2 2 2 1 1 1 1 1 1 1 1 1 1 1 1 1 1 1 1 1 1 1 1 1 1
1 2 2 3 3 3 3 3 3 3 3 2 3 3 3 3 3 2 2 2 2 2 1 1 1 1 1 1 1 1 1 1 1 1 1 1 1 1 1 1 1 1 1
2 2 3 3 3 3 3 3 3 3 3 2 2 2 2 3 3 3 2 2 2 2 1 1 1 1 1 1 1 1 1 2 2 1 1 1 1 1 1 1 1 1 1
2 3 4 4 3 3 3 3 3 3 3 2 2 2 2 2 3 3 2 2 2 2 1 1 1 1 1 1 1 1 1 1 1 1 1 1 1 1 1 1 1 1 1
2 3 4 4 4 3 3 3 3 3 3 2 2 2 2 2 3 3 3 2 2 2 2 1 1 1 1 1 1 1 1 1 1 1 1 1 1 1 2 2 1 1 1
3 3 4 4 4 3 3 3 3 3 3 3 2 2 3 3 3 3 3 3 3 3 2 2 1 1 1 1 1 1 1 1 1 1 1 1 1 2 2 2 2 1 1
3 4 5 5 4 3 3 3 3 3 3 3 3 2 3 3 3 3 3 3 3 3 2 2 2 2 2 1 1 1 1 1 1 1 1 1 1 2 2 2 2 1 1
4 5 6 5 5 4 4 3 3 3 3 3 3 3 3 3 3 3 3 3 3 2 2 2 2 2 2 2 1 1 1 1 1 1 1 1 1 2 2 2 2 1 1
4 5 6 6 5 4 4 4 4 4 3 3 3 3 3 3 3 3 3 3 2 2 2 2 2 2 2 2 1 1 1 1 1 1 1 1 1 1 2 2 2 1 1
5 5 6 6 5 5 5 4 4 4 4 3 3 3 3 2 2 2 3 2 2 1 1 1 1 1 1 1 1 1 1 1 1 1 1 1 1 1 2 2 2 1 1
5 5 6 6 6 5 5 4 4 4 3 3 3 3 3 3 2 2 2 2 1 1 1 1 1 1 1 1 1 1 1 1 1 1 1 1 1 1 2 2 2 2 1
5 5 6 6 6 6 5 4 3 3 3 3 3 3 3 3 2 2 2 1 1 1 1 1 1 1 1 1 1 1 1 1 1 1 1 1 1 1 2 2 2 2 2
5 5 6 6 6 5 4 3 3 3 3 3 3 3 4 3 3 2 2 2 1 1 2 2 2 2 1 1 1 1 1 1 1 1 1 1 2 1 2 2 2 2 2
6 6 6 5 4 4 3 3 3 3 3 4 4 4 4 5 3 2 2 2 2 2 2 1 1 1 1 1 1 1 1 1 1 1 1 1 1 1 1 2 2 2 2
7 7 6 4 4 3 3 3 3 3 3 4 4 4 5 5 4 4 3 3 2 2 2 1 1 1 1 1 1 1 1 1 1 1 1 1 1 1 1 1 2 2 2
7 7 6 4 3 3 2 2 2 3 3 4 4 4 4 5 5 5 4 3 2 2 1 1 1 1 1 1 1 1 1 1 1 1 1 1 1 1 1 1 1 2 2
7 7 6 4 3 2 2 2 2 2 3 3 3 3 3 4 4 4 4 3 2 2 1 1 1 1 1 1 1 1 1 1 1 1 1 1 1 1 1 1 1 2 2
6 7 6 4 3 3 2 2 2 2 2 2 3 3 3 3 3 4 3 3 2 2 2 1 1 1 1 1 1 1 0 0 0 0 0 0 0 1 1 1 1 2 2
5 6 6 5 4 4 4 4 3 3 2 2 2 2 3 3 3 3 3 2 2 2 2 2 1 1 1 1 1 0 0 0 0 0 0 0 0 0 0 1 1 2 2
5 5 5 5 6 7 7 6 5 4 4 3 2 2 2 3 3 3 3 3 2 2 3 2 2 1 1 1 1 0 0 0 0 0 0 0 0 0 0 0 1 1 2
5 5 5 6 7 9 10 9 8 7 5 4 3 2 2 3 3 3 3 3 3 3 3 2 2 1 1 1 0 0 0 0 0 1 0 0 0 0 0 0 0 1 1
6 6 6 6 7 8 9 10 9 8 6 5 4 3 3 3 3 3 3 3 3 2 2 2 1 1 1 1 0 0 0 0 0 0 0 0 0 0 0 0 0 0 0
7 7 6 6 6 6 8 9 8 7 6 4 4 3 3 3 3 3 3 2 2 2 2 2 2 1 1 1 0 0 0 0 0 0 0 0 0 0 0 0 0 0 0
8 8 7 6 5 6 7 8 7 6 5 4 3 3 3 3 3 3 3 2 2 2 2 2 2 2 1 1 1 0 0 0 0 0 0 0 0 0 0 0 0 0 0
8 8 7 6 5 6 7 7 7 6 5 4 4 3 3 3 3 3 2 2 2 2 5 7 5 2 2 1 1 0 0 0 0 0 0 0 0 0 0 0 1 0 0
7 7 6 6 6 6 6 7 7 7 6 5 4 4 4 3 3 2 2 1 2 2 9 15 8 2 2 1 1 1 0 0 0 0 0 0 0 0 0 0 1 0 0

GEFSSE_con_maxscp_216.txt.gz
SCP
1 2 3 3 3 3 3 2 2 2 3 3 2 2 2 2 2 2 2 2 2 2 1 1 1 1 1 1 1 1 1 1 1 1 1 1 1 1 1 1 1 1 1
1 2 3 3 3 3 3 3 2 2 3 3 2 2 2 2 2 2 2 2 2 2 2 1 1 1 1 1 1 1 1 1 1 1 1 1 1 1 1 2 2 2 1
2 2 3 3 3 3 3 3 2 2 3 3 3 3 2 2 2 2 2 2 2 2 2 2 2 1 1 1 1 1 1 1 1 1 1 1 1 1 1 2 2 2 2
2 2 3 3 3 3 3 3 3 3 3 3 3 3 2 2 2 2 2 2 1 2 2 2 2 1 1 1 1 1 2 2 1 1 1 1 1 1 1 1 1 2 2
2 2 3 3 3 3 4 4 4 4 4 3 3 2 2 2 2 2 2 2 2 2 2 2 2 2 1 1 1 1 1 1 1 1 1 1 1 1 1 1 1 1 1
3 3 3 3 3 3 4 4 4 4 4 4 3 2 2 2 2 2 2 2 2 2 2 2 2 2 1 1 1 1 1 1 1 1 1 1 1 1 1 1 1 1 1
3 3 4 4 4 4 4 4 4 4 4 3 3 2 2 2 2 2 2 2 2 2 2 2 2 2 1 1 1 1 1 1 1 1 1 1 1 1 1 1 2 1 1
4 4 5 4 4 4 4 4 4 4 3 3 3 2 2 2 2 2 2 2 2 2 2 2 2 2 1 1 1 1 1 1 1 1 1 1 1 2 2 2 2 2 1
5 5 5 5 4 3 3 3 3 3 3 3 3 2 2 2 2 2 2 2 2 2 2 2 1 1 2 2 1 1 1 1 1 1 1 1 1 2 2 2 2 2 2
5 6 5 4 4 3 3 3 3 3 3 3 3 2 2 2 2 2 2 2 2 2 1 1 1 1 2 2 1 1 1 1 1 1 1 1 1 1 2 2 2 2 2
6 6 5 4 4 4 3 3 3 3 3 3 2 2 2 2 2 2 2 2 2 2 2 2 2 1 1 1 1 1 1 1 1 1 1 1 1 1 1 2 2 2 2
6 5 5 5 5 5 5 4 4 4 3 2 2 2 2 2 2 2 1 1 2 2 2 2 2 1 1 1 2 1 1 1 1 1 1 1 1 1 1 1 2 2 2
6 5 5 6 6 6 6 5 5 4 4 3 2 2 2 2 2 2 2 1 1 2 2 1 1 1 1 1 1 1 1 1 1 1 1 1 1 1 1 1 1 1 2
5 5 5 6 7 7 6 6 5 5 5 4 3 3 3 2 2 2 2 1 1 1 1 1 1 1 1 1 1 1 1 1 1 1 1 1 1 1 1 1 1 1 1
5 5 5 5 7 7 7 6 6 5 5 4 3 3 3 3 2 2 2 2 1 1 1 1 1 1 1 1 1 1 1 1 1 1 1 1 1 1 1 1 1 1 1
5 5 4 4 6 6 6 6 6 5 4 4 3 3 3 3 2 2 2 2 2 2 2 2 2 1 1 1 1 1 1 1 1 1 1 1 1 1 1 1 1 1 1
4 4 4 4 4 5 5 5 5 4 3 3 3 3 3 3 3 2 2 2 2 3 3 3 2 2 2 1 1 1 1 1 1 1 1 1 1 1 1 1 1 1 1
3 3 3 4 4 4 4 4 3 3 3 3 3 3 3 3 3 2 2 2 2 3 3 3 3 3 2 2 1 1 1 1 1 1 1 1 1 1 1 1 1 1 1
2 3 3 4 4 4 3 3 2 2 2 2 2 2 2 2 2 2 2 2 2 2 3 3 3 3 3 2 2 1 1 1 1 1 1 1 1 1 1 1 1 1 1
2 2 3 4 5 5 4 3 2 2 1 2 2 2 2 2 2 2 3 2 2 2 2 2 3 3 3 3 2 1 1 1 1 1 1 0 0 1 1 1 1 1 1
1 2 4 6 7 7 5 3 2 2 2 2 2 2 2 2 3 2 2 3 2 2 2 2 3 2 2 2 2 1 1 0 1 1 0 0 0 0 0 0 0 1 1
1 2 4 7 8 7 5 3 3 3 2 2 2 2 3 3 3 2 2 3 3 2 2 2 3 2 2 2 2 1 0 0 0 0 0 0 0 0 0 0 0 1 1
2 2 4 6 7 6 5 4 4 4 3 3 3 3 2 2 2 2 2 2 2 2 2 2 2 2 1 1 1 1 0 0 0 0 0 0 0 0 0 0 0 1 1
2 2 3 4 5 5 4 4 4 5 4 4 3 3 2 2 2 2 2 2 2 2 2 2 2 2 1 1 1 1 0 0 0 0 1 1 1 1 0 0 0 1 1
2 2 3 3 4 4 5 5 5 5 4 3 3 3 3 3 2 2 3 3 3 2 2 1 1 1 1 1 1 1 0 0 0 0 1 1 1 1 1 1 0 0 0
3 3 2 3 3 5 5 5 5 5 4 3 3 3 3 3 3 3 3 3 3 2 2 2 1 1 1 1 1 1 1 0 0 0 1 1 1 1 1 1 0 0 0

GEFSSE_con_maxscp_222.txt.gz
SCP
2 2 3 3 3 3 3 3 3 3 3 3 3 3 2 2 2 2 2 2 2 2 1 1 1 2 1 1 1 1 1 1 1 1 1 1 1 1 1 1 1 1 1
2 3 3 3 3 3 3 3 3 3 3 3 3 3 2 2 2 2 2 2 2 2 1 1 1 2 2 1 1 1 1 1 1 1 1 1 1 1 1 1 1 1 1
2 3 4 4 4 3 3 3 2 2 2 3 3 3 2 2 2 2 1 1 2 2 2 1 1 2 2 2 1 1 1 1 1 1 1 1 1 1 1 1 1 1 1
3 4 4 4 4 4 3 3 2 2 2 2 2 2 2 2 2 2 1 1 1 1 2 2 2 1 2 2 1 1 1 1 1 1 1 1 1 1 1 1 1 1 1
4 4 5 5 5 4 4 3 3 2 2 2 2 2 2 2 2 2 2 1 1 1 1 1 1 1 1 1 1 1 1 1 1 1 1 1 1 1 1 1 1 1 1
5 5 5 6 5 5 4 3 3 3 3 3 3 2 2 2 2 2 2 2 1 1 1 1 1 1 2 1 1 1 1 1 1 1 1 1 1 1 1 1 1 2 2
5 5 6 6 5 5 4 4 3 4 3 3 3 3 3 3 2 2 2 1 1 1 1 1 1 2 2 2 2 1 1 1 1 1 1 1 2 2 1 1 1 1 2
6 6 6 6 5 5 4 4 4 4 4 4 4 4 4 3 3 2 2 1 1 1 1 2 2 2 2 2 2 1 1 1 1 1 1 2 2 2 2 1 1 1 1
6 6 6 5 5 4 4 4 4 4 4 4 4 4 4 4 3 2 2 1 2 2 1 2 2 2 2 2 2 1 1 1 1 1 1 2 2 2 2 1 1 1 1
7 7 6 5 4 4 3 4 4 4 4 4 4 4 4 3 3 2 2 1 2 2 1 2 2 2 2 2 1 1 1 1 1 1 1 2 2 2 1 1 1 1 1
7 8 7 6 5 4 3 4 4 4 4 4 4 3 3 3 3 2 2 1 1 1 1 1 2 2 1 1 1 1 1 1 1 1 1 1 2 1 1 1 1 1 1
7 8 9 8 7 5 4 4 5 5 5 4 3 3 3 3 3 2 2 1 1 1 1 1 1 1 1 1 1 1 1 1 1 1 1 2 1 1 1 1 1 1 1
6 6 8 9 8 6 5 5 6 6 5 4 4 4 4 4 3 3 2 2 1 1 1 1 1 1 1 1 1 1 1 1 1 1 1 2 1 1 1 2 2 1 1
4 4 5 6 7 6 6 6 6 6 5 5 5 5 5 4 4 3 3 2 2 2 1 1 1 1 1 1 1 1 1 1 1 2 2 2 1 1 1 1 2 2 1
4 4 4 4 5 5 6 6 6 5 5 5 5 6 5 5 4 4 4 3 3 2 2 1 1 1 1 1 1 1 1 2 2 2 2 2 1 1 1 1 1 1 1
5 4 4 4 4 4 5 5 5 5 4 4 5 5 5 4 4 4 4 4 3 3 2 2 2 2 2 2 2 2 2 2 2 3 3 2 1 1 1 1 1 1 1
6 6 6 5 4 4 4 5 5 5 4 4 4 4 4 3 3 3 3 3 4 3 3 2 2 2 2 2 2 2 3 3 3 3 2 2 2 1 1 1 1 1 1
6 6 7 6 6 5 6 6 6 5 4 4 3 3 3 3 3 4 4 4 4 4 3 2 2 2 2 2 2 3 3 3 3 3 2 2 2 1 1 1 1 1 1
4 5 6 6 7 8 9 9 7 5 4 4 4 3 3 3 3 4 5 5 5 4 3 2 2 2 2 2 2 3 3 3 3 3 3 2 2 1 1 1 1 1 1
4 4 4 5 8 11 12 10 7 5 4 4 4 3 3 3 3 4 5 5 5 3 3 2 2 2 2 2 2 2 3 3 3 3 3 2 2 1 1 1 1 1 1
4 4 4 4 7 11 11 9 6 5 5 4 4 4 3 3 4 4 4 4 4 3 3 2 2 2 3 3 3 2 2 2 3 3 3 3 2 2 1 1 2 2 2
4 4 3 3 5 7 7 6 5 5 5 4 4 4 4 4 5 5 4 4 4 3 3 3 3 3 3 3 3 2 2 2 2 3 3 3 2 2 2 2 3 2 2
4 4 3 3 4 4 4 4 4 5 5 5 4 4 4 5 5 5 4 4 3 3 3 3 3 3 3 3 3 3 2 2 2 2 2 3 3 2 3 3 3 3 3
4 3 3 3 3 3 3 4 4 5 5 5 5 5 5 5 5 5 4 3 3 3 3 3 3 3 3 3 3 3 2 2 2 2 2 2 3 3 3 3 3 3 3
3 3 3 3 3 3 3 4 5 5 5 5 6 6 6 5 4 3 3 3 3 3 3 3 3 4 4 4 4 3 3 2 2 2 1 2 2 2 3 3 3 3 3
3 3 3 3 3 3 3 4 5 5 5 5 6 7 6 5 4 3 3 3 4 4 4 4 4 4 4 4 4 3 3 2 2 1 1 2 2 2 2 3 3 3 3

GEFSSE_con_maxscp_228.txt.gz
SCP
5 6 6 5 5 4 3 3 2 2 1 1 1 1 1 2 2 2 2 2 2 3 3 3 3 3 3 3 2 2 1 1 1 1 1 1 1 1 1 1 1 1 1
6 6 6 5 5 4 3 3 2 2 2 1 1 1 1 1 2 2 2 2 2 2 3 3 3 3 3 3 2 2 1 1 1 1 1 1 1 1 1 1 1 1 1
6 6 6 5 5 4 3 3 2 2 2 2 2 1 1 1 2 2 2 2 2 2 2 3 3 3 3 3 3 2 1 1 1 1 1 1 1 1 1 1 1 1 1
7 7 6 6 5 5 4 3 3 2 2 2 2 2 1 1 1 1 1 1 1 1 2 2 2 2 3 3 3 2 2 1 1 1 1 1 1 2 2 1 1 1 1
7 7 7 7 6 5 4 4 3 3 2 2 2 2 2 2 2 1 1 1 1 1 1 1 1 2 2 3 2 2 1 1 1 1 1 1 1 2 2 1 1 1 1
7 6 7 7 7 6 5 4 3 3 3 2 2 2 2 3 2 2 1 1 1 1 1 1 1 1 2 2 2 2 1 1 1 1 1 1 2 2 2 1 1 1 1
6 6 7 7 7 6 5 4 3 3 3 3 2 3 3 3 3 2 1 1 1 1 1 1 1 1 2 2 2 2 1 1 1 1 1 1 2 2 2 2 1 1 1
7 7 8 7 6 5 5 4 4 3 3 3 3 3 3 3 2 2 2 2 2 1 1 1 1 1 1 1 1 1 1 1 1 1 1 1 2 3 2 2 1 1 1
9 9 9 7 6 5 4 4 3 3 3 3 3 3 3 3 2 2 2 2 2 1 1 1 1 1 1 1 1 1 1 1 1 1 1 2 3 3 3 2 2 2 2
12 11 9 7 6 5 4 4 3 3 3 3 3 3 3 3 3 2 2 2 2 1 1 1 1 1 1 1 1 1 1 1 1 1 1 2 3 3 3 2 2 2 1
11 10 9 8 6 5 4 4 4 3 3 3 3 3 3 3 3 2 2 2 2 1 1 1 1 2 1 1 1 2 2 1 1 1 1 2 4 4 3 2 2 2 1
10 9 9 9 8 5 4 4 4 4 3 3 4 4 3 3 3 2 2 2 2 2 1 1 2 2 1 1 1 2 2 1 1 1 2 3 5 5 4 3 2 2 2
10 9 9 9 9 8 6 5 5 5 4 4 5 4 4 3 3 3 2 2 2 2 2 2 2 1 1 1 1 1 1 1 1 1 3 4 5 4 4 3 3 2 2
10 9 9 9 9 9 8 6 5 5 6 7 7 6 5 5 4 3 3 3 3 3 2 2 2 1 1 1 1 1 1 1 1 2 3 4 5 4 4 3 3 3 3
8 7 7 8 8 8 7 6 6 6 7 8 8 6 6 6 5 4 3 3 3 3 3 3 2 2 1 1 1 1 1 1 1 2 3 4 4 5 4 3 3 3 3
6 5 5 6 8 8 7 6 6 6 7 8 7 6 5 4 4 4 3 3 3 3 3 3 3 2 2 2 1 2 2 1 2 2 2 3 4 4 4 4 3 3 2
6 6 5 6 8 9 8 6 5 6 7 7 6 5 4 4 4 5 4 3 3 3 4 4 3 3 2 2 2 2 2 2 2 2 3 3 3 4 4 4 3 3 2
10 9 7 6 8 9 9 8 6 6 6 6 5 5 4 4 5 5 4 3 3 3 4 5 5 4 3 2 2 2 2 2 3 3 3 3 3 3 3 3 3 3 3
15 13 9 7 8 9 10 9 7 6 6 6 6 6 5 5 5 5 4 4 4 4 5 6 7 6 4 3 3 2 2 3 3 3 3 3 3 2 2 3 3 3 3
21 18 12 9 8 9 10 9 7 6 5 5 6 6 6 6 6 6 5 4 4 5 6 7 8 6 4 3 3 2 2 3 3 3 3 3 3 2 2 2 2 2 2
26 22 16 11 10 9 9 7 6 6 5 5 6 7 7 7 6 5 5 4 4 5 6 6 6 5 3 3 2 2 2 3 3 3 3 3 2 2 2 2 2 2 2
25 21 15 12 11 10 8 7 6 6 5 6 6 7 8 7 6 5 5 5 5 5 6 5 5 4 3 3 3 2 2 2 2 2 2 2 2 2 2 2 2 2 2
19 16 12 10 10 9 8 6 6 6 6 6 7 8 7 6 6 5 5 5 6 6 6 6 5 4 4 4 4 3 2 2 2 2 2 2 2 2 1 1 2 2 2
13 11 9 9 8 7 6 6 6 6 6 6 7 8 7 6 6 5 5 5 6 6 6 6 6 5 5 5 5 4 3 2 2 2 1 2 1 1 1 1 2 2 2
9 8 8 8 7 6 5 5 5 5 5 7 8 7 7 6 6 5 5 5 6 6 6 5 6 6 6 5 5 5 4 2 2 2 1 1 1 1 1 1 2 2 3
8 8 7 7 6 5 4 4 4 4 5 7 7 7 6 6 6 5 5 5 5 5 5 5 6 6 6 6 5 5 4 3 2 2 1 1 1 1 1 2 2 2 3

GEFSSE_con_maxscp_234.txt.gz
SCP
3 3 3 3 4 4 4 4 3 3 3 3 3 3 3 3 3 2 2 2 2 1 1 1 2 2 2 2 1 1 1 1 1 1 1 1 1 1 1 1 1 1 1
3 3 4 4 4 4 4 4 3 3 3 2 2 3 3 2 2 2 2 2 2 1 1 1 1 2 2 2 1 1 1 1 1 1 1 1 1 1 1 1 1 1 1
3 4 5 5 5 4 5 5 4 3 3 2 2 2 2 2 2 2 2 2 2 2 1 1 1 2 2 2 1 1 1 1 1 1 1 1 1 1 1 1 1 1 1
4 5 7 7 6 5 5 5 4 4 3 2 2 2 2 2 2 2 2 2 2 2 1 1 1 1 1 1 1 1 1 1 1 1 1 0 0 1 1 1 1 1 1
4 5 7 8 8 6 6 5 5 4 3 2 2 2 2 2 2 2 2 2 2 2 1 1 1 1 1 1 1 1 1 1 1 1 1 1 1 1 1 1 1 1 1
5 5 7 9 8 7 6 5 5 4 3 2 2 2 2 2 2 2 2 2 2 2 1 1 1 1 1 1 1 1 1 1 1 1 1 1 1 1 2 2 1 1 1
6 6 7 8 8 7 6 5 5 4 3 3 2 2 2 2 2 2 2 2 2 2 2 1 1 1 1 1 1 1 1 1 1 1 0 1 1 1 2 2 2 1 1
6 6 6 7 7 7 6 5 5 4 4 3 3 2 2 2 2 2 2 2 2 2 2 1 1 1 1 1 1 1 1 1 1 1 1 1 1 1 2 2 2 2 1
5 6 7 7 6 6 6 6 5 5 4 4 3 2 2 2 2 2 2 2 2 2 1 1 1 2 2 1 1 1 1 1 1 1 1 1 1 1 2 2 2 2 2
5 6 6 6 5 5 6 6 5 5 4 4 4 3 2 2 2 2 2 2 2 1 1 1 2 2 2 1 1 1 1 1 1 1 1 1 1 1 2 2 2 2 2
5 6 6 5 4 4 4 5 5 5 4 4 4 3 3 2 2 2 2 2 2 1 1 2 2 2 2 1 1 1 1 1 1 1 1 1 1 1 2 2 2 2 2
4 5 5 5 4 4 3 4 4 4 4 4 3 3 2 2 2 2 2 2 2 1 1 2 2 2 2 2 1 1 1 1 1 1 1 1 1 1 2 3 3 2 2
3 4 5 5 5 4 3 4 4 4 4 4 3 3 2 2 3 3 3 2 2 1 1 2 3 3 2 2 1 1 1 1 1 1 1 1 1 1 2 2 2 2 2
3 4 7 7 6 4 4 4 4 5 5 4 3 3 3 2 3 3 3 2 2 2 2 2 3 3 2 2 1 1 1 1 1 1 1 1 1 1 2 2 2 2 2
3 5 8 9 7 5 4 4 4 5 5 4 3 3 2 2 3 3 2 2 2 2 2 3 3 3 2 2 1 1 1 1 1 1 1 1 1 2 2 2 2 2 2
4 5 7 9 8 6 4 4 4 5 5 4 3 3 2 2 2 2 2 1 1 1 1 2 2 3 2 2 2 1 1 1 1 1 1 1 1 2 2 3 3 3 3
4 4 6 8 9 6 4 4 4 4 4 3 2 2 2 2 2 2 2 1 1 1 1 1 1 2 2 2 2 1 1 1 1 1 1 1 1 1 3 4 4 4 3
5 5 6 8 8 6 4 4 4 4 3 2 2 2 2 2 2 2 2 2 2 1 1 1 1 1 1 1 1 1 1 1 1 1 1 1 1 1 2 3 4 3 2
6 6 6 7 7 5 4 3 3 3 3 3 3 2 2 2 2 2 2 2 3 2 2 2 2 1 1 1 1 1 1 1 1 1 1 1 1 1 1 2 3 3 2
7 7 7 7 6 4 4 3 3 3 4 4 3 2 2 3 3 3 3 3 3 3 2 2 2 1 1 1 1 1 1 1 1 1 1 1 1 1 1 1 2 2 2
8 8 7 6 5 4 3 3 3 3 3 3 3 2 2 3 3 3 3 3 3 3 3 2 2 1 1 1 1 1 1 1 1 1 1 1 1 1 1 1 1 2 2
10 9 8 6 4 4 4 4 3 3 3 3 3 2 2 2 2 3 3 3 4 4 3 2 1 1 1 1 1 1 1 0 0 1 1 1 1 1 1 1 1 1 1
11 10 8 5 4 4 4 4 4 4 3 3 3 2 2 2 2 2 2 3 4 4 3 2 1 1 1 1 1 1 1 1 0 0 0 0 1 1 1 1 1 1 1
10 9 6 5 4 4 4 4 4 4 3 3 2 2 1 1 1 2 2 3 4 4 3 2 2 1 1 1 1 1 1 1 0 0 0 0 0 0 1 1 1 1 1
7 6 5 4 3 3 4 4 4 4 3 2 2 1 1 1 1 1 2 3 3 3 3 3 2 2 2 1 2 2 2 1 1 0 0 0 0 0 0 0 1 1 1
5 4 4 3 3 3 3 4 4 4 3 2 1 1 1 1 1 2 2 3 3 3 3 3 3 2 2 2 2 2 2 2 1 1 0 0 0 0 0 0 0 0 0